Regional Weather Roundup
Issued by NWS Goodland, KS

Home | Current Version | Previous Version | Text Only | Print | Product List | Glossary Off
Versions: 1 2 3 4 5 6 7 8 9 10 11 12 13 14 15 16 17 18 19 20 21 22 23 24 25 26 27 28 29 30 31 32 33 34 35 36 37 38 39 40 41 42 43 44 45 46 47 48 49 50

000
ASUS43 KGLD 032308
RWRGLD

GOODLAND FORECAST AREA HOURLY WEATHER ROUNDUP
NATIONAL WEATHER SERVICE GOODLAND KS
500 PM MDT FRI JUL 03 2015

...OFFICIAL OBSERVATIONS...

CITY           SKY/WX    TMP DP  RH WIND       PRES   REMARKS
GOODLAND KS    PTSUNNY   86  55  34 VRB5      30.01F
HILL CITY KS   SUNNY     87  59  38 NE10G18   29.98F
IMPERIAL NEB   SUNNY     88  54  31 N6        30.00F
MCCOOK NEB     SUNNY     83  62  49 E9        29.98F
AKRON CO       SUNNY     82  56  40 SE6       30.06F
BURLINGTON CO  MOSUNNY   87  54  32 NE9       30.05F
LIMON CO       SUNNY     81  56  42 VRB6      30.11F
$$

...UNOFFICIAL OBSERVATIONS...

CITY           SKY/WX    TMP DP  RH WIND       PRES   REMARKS
COLBY KS       SUNNY     88  57  35 E6        30.00F
GOVE KS          N/A     83  32  16 MISG        N/A
NORTON KS      SUNNY     81  55  41 NE10      29.99F
SHARON SPRINGS   N/A     88  59  37 E7          N/A
KIT CARSON CO    N/A     87  58  37 MISG        N/A
YUMA CO          N/A     85  59  41 E8          N/A
$$



USA.gov is the U.S. government's official web portal to all federal, state and local government web resources and services.